Hourly Data Report for June 21, 2017

ATIKOKAN (AUT)
ONTARIO

48°45'40.000" N
91°37'41.000" W
389.30 m
6020LPQ
71747
WCH

Download Data

Hourly Data (June 2017)
Hourly Data Report for June 21, 2017
TIME
LST
Temp Definition
°C
Dew Point Definition
°C
Rel Hum Definition
%
Precip. Amount Definition
mm

Wind Dir Definition
10's deg

Wind Spd Definition
km/h
Visibility Definition
km
Stn Press Definition
kPa
Hmdx Definition


Wind Chill Definition


Weather Definition


00:00 7.2 6.4 94 0.0   0   96.76     LegendNANA
01:00 6.4 5.7 95 0.0   0   96.74     LegendNANA
02:00 5.9 5.2 95 0.0 6 1   96.72     LegendNANA
03:00 5.3 4.7 96 0.0   0   96.73     LegendNANA
04:00 5.0 4.4 96 0.0   0   96.79     LegendNANA
05:00 5.6 5.1 96 0.0   0   96.73     LegendNANA
06:00 10.6 8.7 88 0.0   0   96.72     LegendNANA
07:00 13.8 9.3 75 0.0 24 3   96.73     LegendNANA
08:00 16.1 9.3 64 0.0 24 4   96.72     LegendNANA
09:00 18.5 9.7 57 0.0 22 3   96.67     LegendNANA
10:00 19.4 5.8 41 0.0 24 7   96.64     LegendNANA
11:00 20.7 7.2 41 0.0 19 9   96.57     LegendNANA
12:00 19.9 5.1 38 0.0 20 9   96.53     LegendNANA
13:00 20.2 6.8 42 0.0 17 10   96.44     LegendNANA
14:00 21.0 6.4 39 0.0 15 8   96.37     LegendNANA
15:00 20.2 6.9 42 0.0 21 6   96.37     LegendNANA
16:00 19.9 8.2 47 0.0 18 5   96.29     LegendNANA
17:00 17.5 10.5 63 0.0 14 1   96.20     LegendNANA
18:00 16.0 10.5 70 0.0 32 3   96.27     LegendNANA
19:00 14.9 12.3 84 0.2 3 3   96.20     LegendNANA
20:00 14.7 11.2 80 0.0 13 5   96.03     LegendNANA
21:00 14.2 10.3 77 0.0 9 5   96.01     LegendNANA
22:00 13.1 10.9 87 0.5 11 6   95.94     LegendNANA
23:00 13.3 10.3 82 0.0 14 6   95.87     LegendNANA

Notes on Data Quality.

Legend

  • E = Estimated
  • M = Missing
  • NA = Not Available*
  • [empty] = Indicates an unobserved value
Date modified: